SM2GSR-2 Weather Reports


time (UTC)temp
C
wind
direction
speed
KPH
gust
KPH
rain 1hr
cm
rain 24hr
cm
rain mn
cm
humidity
%
barometer
mb
20260507122503 6 213 0.0 8.0 0.00 0.08 0.03 56 1009.2
20260507122004 6 215 0.0 0.0 0.00 0.08 0.03 56 1009.2
20260507121503 6 207 0.0 0.0 0.00 0.08 0.03 56 1009.2
20260507121003 6 213 0.0 0.0 0.00 0.08 0.03 55 1009.2
20260507120003 6 234 0.0 0.0 0.00 0.08 0.03 56 1009.2
20260507115003 6 314 0.0 0.0 0.00 0.08 0.03 51 1009.1
20260507114503 7 317 0.0 0.0 0.00 0.08 0.03 49 1009.1
20260507114003 7 317 0.0 0.0 0.00 0.08 0.03 50 1009.1
20260507113503 6 317 0.0 0.0 0.00 0.08 0.03 52 1009.0
20260507112003 6 316 0.0 0.0 0.00 0.08 0.03 52 1009.0
20260507111503 6 342 0.0 11.3 0.00 0.08 0.03 53 1009.0
20260507110503 6 236 0.0 0.0 0.00 0.08 0.03 51 1008.9
20260507110003 6 236 0.0 0.0 0.00 0.08 0.03 50 1008.9
20260507105003 7 224 4.8 19.3 0.00 0.08 0.03 49 1008.9
20260507104503 8 289 3.2 20.9 0.00 0.08 0.03 46 1008.8
20260507104004 9 322 3.2 20.9 0.00 0.08 0.03 44 1008.7
20260507103503 8 276 1.6 9.7 0.00 0.08 0.03 43 1008.6
20260507103004 8 296 1.6 11.3 0.00 0.08 0.03 43 1008.5
20260507102502 8 66 0.0 3.2 0.00 0.08 0.03 45 1008.5
20260507102003 7 188 0.0 0.0 0.00 0.08 0.03 46 1008.5
20260507101503 7 264 0.0 8.0 0.00 0.08 0.03 47 1008.6
20260507101003 7 300 9.7 14.5 0.00 0.08 0.03 47 1008.6
20260507100503 7 291 6.4 19.3 0.00 0.08 0.03 47 1008.5
20260507100003 7 340 6.4 19.3 0.00 0.08 0.03 47 1008.5
20260507095502 7 307 8.0 24.1 0.00 0.08 0.03 49 1008.4
20260507095003 7 258 8.0 22.5 0.00 0.08 0.03 47 1008.4
20260507094503 7 314 8.0 16.1 0.03 0.08 0.03 48 1008.4
20260507094003 7 305 4.8 14.5 0.03 0.08 0.03 49 1008.5
20260507093503 6 268 1.6 14.5 0.03 0.08 0.03 50 1008.5
20260507093003 6 320 1.6 11.3 0.03 0.08 0.03 49 1008.4
20260507092503 6 312 4.8 12.9 0.03 0.08 0.03 50 1008.4
20260507092003 6 348 6.4 12.9 0.03 0.08 0.03 49 1008.4
20260507091503 7 356 1.6 11.3 0.03 0.08 0.03 52 1008.4
20260507090504 7 33 0.0 11.3 0.03 0.08 0.03 53 1008.4
20260507090004 7 328 1.6 9.7 0.03 0.08 0.03 51 1008.4
20260507085503 7 246 0.0 14.5 0.03 0.08 0.03 50 1008.4
20260507085003 6 176 3.2 12.9 0.03 0.08 0.03 54 1008.3
20260507084003 5 319 0.0 0.0 0.00 0.05 0.00 54 1008.4
20260507083503 5 319 0.0 0.0 0.00 0.05 0.00 55 1008.4
20260507083003 5 49 0.0 0.0 0.00 0.05 0.00 54 1008.3
20260507082503 5 51 0.0 0.0 0.00 0.05 0.00 58 1008.4
20260507082003 6 51 0.0 0.0 0.00 0.05 0.00 57 1008.4
20260507081003 6 68 1.6 8.0 0.00 0.05 0.00 59 1008.4
20260507080503 6 67 1.6 8.0 0.00 0.05 0.00 61 1008.4
20260507080004 6 73 4.8 16.1 0.00 0.05 0.00 61 1008.3
20260507075503 6 79 0.0 4.8 0.00 0.05 0.00 60 1008.3
20260507075003 6 80 1.6 4.8 0.00 0.05 0.00 59 1008.3
20260507074003 6 94 0.0 4.8 0.00 0.05 0.00 64 1008.3
20260507073503 6 71 4.8 9.7 0.00 0.05 0.00 63 1008.3
20260507073003 5 88 0.0 0.0 0.00 0.05 0.00 66 1008.3
20260507072503 5 92 0.0 0.0 0.00 0.05 0.00 70 1008.3
20260507072003 5 92 0.0 8.0 0.00 0.05 0.00 67 1008.3
20260507070503 4 63 0.0 0.0 0.00 0.05 0.00 71 1008.2
20260507070005 3 69 1.6 8.0 0.00 0.05 0.00 71 1008.3
20260507065503 3 50 1.6 8.0 0.00 0.05 0.00 70 1008.2
20260507065003 3 46 0.0 4.8 0.00 0.05 0.00 71 1008.3
20260507064503 3 57 0.0 0.0 0.00 0.05 0.00 72 1008.2
20260507064003 3 57 0.0 3.2 0.00 0.05 0.00 72 1008.2
20260507063503 3 70 0.0 8.0 0.00 0.05 0.00 75 1008.1
20260507063003 3 70 0.0 8.0 0.00 0.05 0.00 74 1008.1
20260507062503 3 70 0.0 4.8 0.00 0.05 0.00 74 1008.1
20260507062004 3 71 0.0 0.0 0.00 0.05 0.00 75 1008.1
20260507061503 3 73 0.0 4.8 0.00 0.05 0.00 76 1008.0
20260507061003 2 73 3.2 8.0 0.00 0.05 0.00 76 1008.0
20260507060503 2 73 3.2 8.0 0.00 0.05 0.00 78 1008.0
20260507060003 2 46 0.0 0.0 0.00 0.05 0.00 80 1008.0
20260507054503 1 318 0.0 0.0 0.00 0.05 0.00 87 1008.0
20260507053503 1 318 0.0 0.0 0.00 0.05 0.00 90 1007.9
20260507052503 0 317 0.0 0.0 0.00 0.05 0.00 87 1007.9
20260507052003 0 317 0.0 0.0 0.00 0.05 0.00 86 1007.9
20260507051003 0 317 0.0 0.0 0.00 0.05 0.00 86 1007.9
20260507050503 0 317 0.0 0.0 0.00 0.05 0.00 86 1008.0
20260507050003 -1 317 0.0 0.0 0.00 0.05 0.00 86 1007.9
20260507045503 -1 317 0.0 0.0 0.00 0.05 0.00 86 1007.9
20260507045003 -1 317 0.0 0.0 0.00 0.05 0.00 86 1007.9
20260507044503 -1 317 0.0 0.0 0.00 0.05 0.00 86 1007.8
20260507044003 -2 317 0.0 0.0 0.00 0.05 0.00 86 1007.9
20260507043503 -2 317 0.0 0.0 0.00 0.05 0.00 86 1007.9
20260507043003 -2 317 0.0 0.0 0.00 0.05 0.00 87 1007.9
20260507042503 -2 317 0.0 0.0 0.00 0.05 0.00 87 1007.9
20260507042003 -3 317 0.0 0.0 0.00 0.05 0.00 88 1007.9
20260507041503 -3 317 0.0 0.0 0.00 0.05 0.00 88 1007.9
20260507041004 -3 317 0.0 0.0 0.00 0.05 0.00 88 1007.9
20260507040503 -3 317 0.0 0.0 0.00 0.05 0.00 88 1007.9
20260507040003 -3 317 0.0 0.0 0.00 0.05 0.00 88 1007.9
20260507035503 -3 317 0.0 0.0 0.00 0.05 0.00 89 1007.9
20260507035003 -3 317 0.0 0.0 0.00 0.05 0.00 89 1007.8
20260507034504 -4 317 0.0 0.0 0.00 0.05 0.00 89 1007.8
20260507034003 -4 317 0.0 0.0 0.00 0.05 0.00 89 1007.8
20260507033503 -4 317 0.0 0.0 0.00 0.05 0.00 89 1007.7
20260507033003 -4 317 0.0 0.0 0.00 0.05 0.00 89 1007.7
20260507032503 -5 317 0.0 0.0 0.00 0.05 0.00 89 1007.7
20260507032003 -5 317 0.0 0.0 0.00 0.05 0.00 89 1007.7
20260507031504 -5 317 0.0 0.0 0.00 0.05 0.00 89 1007.6
20260507031003 -5 317 0.0 0.0 0.00 0.05 0.00 89 1007.6
20260507030003 -5 317 0.0 0.0 0.00 0.05 0.00 90 1007.5
20260507025003 -5 317 0.0 0.0 0.00 0.05 0.00 90 1007.5
20260507024503 -5 317 0.0 0.0 0.00 0.05 0.00 90 1007.5
20260507024003 -5 317 0.0 0.0 0.00 0.05 0.00 90 1007.5
20260507023503 -5 317 0.0 0.0 0.00 0.05 0.00 90 1007.4
20260507023003 -5 317 0.0 0.0 0.00 0.05 0.00 90 1007.4
20260507022003 -6 317 0.0 0.0 0.00 0.05 0.00 90 1007.4
20260507021503 -6 317 0.0 0.0 0.00 0.05 0.00 90 1007.4
20260507021003 -6 317 0.0 0.0 0.00 0.05 0.00 90 1007.3
20260507020003 -5 317 0.0 0.0 0.00 0.05 0.00 90 1007.3
20260507015503 -5 317 0.0 0.0 0.00 0.05 0.00 90 1007.2
20260507015003 -5 317 0.0 0.0 0.00 0.05 0.00 90 1007.2
20260507014503 -5 317 0.0 0.0 0.00 0.05 0.00 90 1007.2
20260507014004 -5 317 0.0 0.0 0.00 0.05 0.00 90 1007.2
20260507013503 -5 317 0.0 0.0 0.00 0.05 0.00 90 1007.2
20260507013003 -5 317 0.0 0.0 0.00 0.05 0.00 90 1007.2
20260507012003 -5 317 0.0 0.0 0.00 0.05 0.00 90 1007.2
20260507011503 -5 317 0.0 0.0 0.00 0.05 0.00 90 1007.1
20260507011004 -5 317 0.0 0.0 0.00 0.05 0.00 90 1007.2
20260507010504 -5 317 0.0 0.0 0.00 0.05 0.00 90 1007.1
20260507010003 -5 317 0.0 0.0 0.00 0.05 0.00 90 1007.1
20260507005004 -5 317 0.0 0.0 0.00 0.05 0.00 90 1007.1
20260507004503 -5 317 0.0 0.0 0.00 0.05 0.00 90 1007.1
20260507004003 -5 317 0.0 0.0 0.00 0.05 0.00 90 1007.0
20260507003004 -5 317 0.0 0.0 0.00 0.05 0.00 90 1007.0
20260507002503 -5 317 0.0 0.0 0.00 0.05 0.00 90 1006.9
20260507002003 -5 317 0.0 0.0 0.00 0.05 0.00 90 1006.9
20260507001503 -5 317 0.0 0.0 0.00 0.05 0.00 90 1006.9
20260507001003 -4 317 0.0 0.0 0.00 0.05 0.00 90 1006.9
20260507000503 -4 317 0.0 0.0 0.00 0.05 0.00 90 1006.8
20260506235504 -4 317 0.0 0.0 0.00 0.05 0.00 90 1006.8
20260506235004 -4 317 0.0 0.0 0.00 0.05 0.00 90 1006.7
20260506234505 -4 317 0.0 0.0 0.00 0.05 0.00 90 1006.7
20260506233504 -4 317 0.0 0.0 0.00 0.05 0.00 90 1006.6
20260506233006 -4 317 0.0 0.0 0.00 0.05 0.00 90 1006.6
20260506232505 -4 317 0.0 0.0 0.00 0.05 0.00 90 1006.5
20260506231504 -4 317 0.0 0.0 0.00 0.05 0.00 90 1006.5
20260506231003 -3 317 0.0 0.0 0.00 0.05 0.00 90 1006.5
20260506230503 -3 317 0.0 0.0 0.00 0.05 0.00 90 1006.5
20260506225503 -3 317 0.0 0.0 0.00 0.05 0.00 90 1006.5
20260506225003 -3 317 0.0 0.0 0.00 0.05 0.00 90 1006.4
20260506224503 -3 317 0.0 0.0 0.00 0.05 0.00 90 1006.4
20260506224003 -3 317 0.0 0.0 0.00 0.05 0.00 90 1006.4
20260506223503 -3 317 0.0 0.0 0.00 0.05 0.00 90 1006.3
20260506223003 -3 317 0.0 0.0 0.00 0.05 0.00 90 1006.3
20260506222503 -3 317 0.0 0.0 0.00 0.05 0.00 90 1006.3
20260506222003 -3 317 0.0 0.0 0.00 0.05 0.00 90 1006.4
20260506221504 -3 317 0.0 0.0 0.00 0.05 0.00 90 1006.3
20260506220503 -3 317 0.0 0.0 0.00 0.05 0.00 90 1006.2
20260506220003 -3 317 0.0 0.0 0.00 0.05 0.00 90 1006.2
20260506215503 -3 317 0.0 0.0 0.00 0.05 0.05 90 1006.2
20260506215003 -3 317 0.0 0.0 0.00 0.05 0.05 89 1006.1
20260506214503 -3 317 0.0 0.0 0.00 0.05 0.05 90 1006.1
20260506214004 -3 317 0.0 0.0 0.00 0.05 0.05 90 1006.0
20260506213503 -3 317 0.0 0.0 0.00 0.05 0.05 89 1006.0
20260506213003 -3 317 0.0 0.0 0.00 0.05 0.05 89 1006.0
20260506212503 -3 317 0.0 0.0 0.00 0.05 0.05 89 1006.0
20260506212003 -3 317 0.0 0.0 0.00 0.05 0.05 89 1006.0
20260506211503 -3 317 0.0 0.0 0.00 0.05 0.05 89 1005.9
20260506211003 -3 317 0.0 0.0 0.00 0.05 0.05 89 1005.9
20260506210503 -2 317 0.0 0.0 0.00 0.05 0.05 89 1005.9
20260506210003 -2 317 0.0 0.0 0.00 0.05 0.05 89 1005.9
20260506205503 -2 317 0.0 0.0 0.00 0.05 0.05 89 1005.9
20260506205003 -2 317 0.0 0.0 0.00 0.05 0.05 89 1005.9
20260506204503 -2 317 0.0 0.0 0.00 0.05 0.05 89 1005.9
20260506204003 -2 317 0.0 0.0 0.00 0.05 0.05 88 1005.9
20260506203503 -2 317 0.0 0.0 0.00 0.05 0.05 88 1005.9
20260506203004 -2 317 0.0 0.0 0.00 0.05 0.05 88 1005.9
20260506202503 -2 317 0.0 0.0 0.00 0.05 0.05 88 1005.8
20260506202003 -2 317 0.0 0.0 0.00 0.05 0.05 88 1005.8
20260506201503 -1 317 0.0 0.0 0.00 0.05 0.05 88 1005.8
20260506201003 -1 317 0.0 0.0 0.00 0.05 0.05 88 1005.7
20260506200503 -1 317 0.0 0.0 0.00 0.05 0.05 88 1005.7
20260506200004 -1 317 0.0 0.0 0.00 0.05 0.05 88 1005.6
20260506195003 -1 317 0.0 0.0 0.00 0.05 0.05 87 1005.5
20260506194503 -1 317 0.0 0.0 0.00 0.05 0.05 87 1005.3
20260506194003 -1 317 0.0 0.0 0.00 0.05 0.05 87 1005.2
20260506193503 -1 317 0.0 0.0 0.00 0.05 0.05 86 1005.1
20260506193003 0 317 0.0 0.0 0.00 0.05 0.05 86 1005.1
20260506192504 0 317 0.0 0.0 0.00 0.05 0.05 86 1005.1
20260506192003 0 317 0.0 0.0 0.00 0.05 0.05 84 1005.1
20260506191503 0 317 0.0 0.0 0.03 0.05 0.05 84 1005.0
20260506191003 0 317 0.0 0.0 0.03 0.05 0.05 83 1005.0
20260506190003 1 317 0.0 0.0 0.03 0.05 0.05 83 1005.0
20260506185003 1 317 0.0 0.0 0.03 0.05 0.05 82 1005.0
20260506184504 1 317 0.0 0.0 0.03 0.05 0.05 82 1005.0
20260506184003 2 317 0.0 0.0 0.03 0.05 0.05 82 1004.9
20260506183503 2 317 0.0 0.0 0.03 0.05 0.05 81 1004.9
20260506183004 2 317 0.0 0.0 0.03 0.05 0.05 80 1004.8
20260506182503 2 317 0.0 0.0 0.03 0.05 0.05 79 1004.8
20260506182003 3 317 0.0 0.0 0.03 0.05 0.05 77 1004.8
20260506181504 3 317 0.0 0.0 0.00 0.03 0.03 76 1004.7
20260506181003 3 317 0.0 0.0 0.00 0.03 0.03 74 1004.7
20260506180503 4 317 0.0 0.0 0.00 0.03 0.03 73 1004.7
20260506180004 4 317 0.0 0.0 0.00 0.03 0.03 71 1004.6
20260506175503 5 317 0.0 0.0 0.00 0.03 0.03 70 1004.6
20260506175003 5 317 0.0 0.0 0.00 0.03 0.03 69 1004.5
20260506174003 5 317 0.0 0.0 0.00 0.03 0.03 71 1004.5
20260506173503 5 317 0.0 0.0 0.00 0.03 0.03 71 1004.6
20260506173004 5 317 0.0 0.0 0.00 0.03 0.03 70 1004.5
20260506172503 5 317 0.0 0.0 0.00 0.03 0.03 69 1004.5
20260506172003 5 317 0.0 0.0 0.00 0.03 0.03 68 1004.4
20260506171003 5 76 0.0 0.0 0.00 0.03 0.03 69 1004.4
20260506170004 5 89 0.0 1.6 0.00 0.03 0.03 72 1004.3
20260506165503 5 92 1.6 3.2 0.00 0.03 0.03 72 1004.3
20260506165003 5 147 0.0 0.0 0.00 0.03 0.03 73 1004.2
20260506164003 5 147 0.0 0.0 0.00 0.03 0.03 72 1004.1
20260506163503 5 147 0.0 0.0 0.00 0.03 0.03 73 1004.1
20260506163004 5 147 0.0 8.0 0.00 0.03 0.03 73 1004.1
20260506162503 5 175 0.0 0.0 0.00 0.03 0.03 74 1004.1
20260506162003 4 183 0.0 0.0 0.00 0.03 0.03 74 1004.1
20260506161503 4 185 4.8 11.3 0.00 0.03 0.03 73 1004.1
20260506161004 5 194 1.6 8.0 0.00 0.03 0.03 71 1004.1
20260506160503 5 167 0.0 0.0 0.00 0.03 0.03 70 1004.1
20260506155004 5 85 0.0 0.0 0.03 0.03 0.03 65 1004.0
20260506154504 5 85 0.0 0.0 0.03 0.03 0.03 65 1003.9
20260506154003 5 85 0.0 0.0 0.03 0.03 0.03 65 1003.9
20260506153503 5 85 0.0 0.0 0.03 0.03 0.03 64 1004.0
20260506151003 5 86 0.0 0.0 0.03 0.03 0.03 69 1004.0
20260506150503 5 86 0.0 0.0 0.03 0.03 0.03 70 1003.9
20260506150003 5 86 0.0 8.0 0.03 0.03 0.03 75 1004.0
20260506145503 4 272 0.0 4.8 0.00 0.00 0.00 80 1004.0
20260506145003 3 281 0.0 0.0 0.00 0.00 0.00 77 1004.1
20260506144503 3 281 0.0 0.0 0.00 0.00 0.00 77 1004.3
20260506144004 3 281 0.0 8.0 0.00 0.00 0.00 76 1004.2
20260506143503 3 277 4.8 11.3 0.00 0.00 0.00 74 1004.2
20260506143004 4 313 8.0 14.5 0.00 0.00 0.00 71 1004.2
20260506142503 5 324 3.2 19.3 0.00 0.00 0.00 67 1004.0
20260506142003 5 297 1.6 14.5 0.00 0.00 0.00 60 1003.9
20260506141003 6 71 0.0 0.0 0.00 0.00 0.00 58 1003.6
20260506140003 5 332 0.0 0.0 0.00 0.00 0.00 66 1003.4
20260506135003 4 331 0.0 0.0 0.00 0.00 0.00 68 1003.4
20260506134003 4 354 1.6 11.3 0.00 0.00 0.00 68 1003.6
20260506133503 5 339 9.7 12.9 0.00 0.00 0.00 67 1003.6
20260506133003 5 349 4.8 16.1 0.00 0.00 0.00 66 1003.5
20260506132503 5 345 4.8 12.9 0.00 0.00 0.00 63 1003.4
20260506132004 6 339 11.3 22.5 0.00 0.00 0.00 61 1003.4
20260506131503 6 340 14.5 25.7 0.00 0.00 0.00 59 1003.3
20260506130003 8 267 3.2 14.5 0.00 0.00 0.00 46 1003.0
20260506125503 8 239 1.6 12.9 0.00 0.00 0.00 46 1003.0
20260506125003 7 217 0.0 3.2 0.00 0.00 0.00 49 1003.0
20260506124503 7 274 1.6 11.3 0.00 0.00 0.00 51 1003.0